QPF
0.12 0.13 0.13 0.15 0.14 0.11 0.13 0.16 0.17 0.14 0.09 0.08 0.07 0.07 0.07 0.07 0.07 0.09 0.10 0.09 0.07 0.07 0.11 0.11 0.11 0.13 0.12 0.11 0.10 0.10 0.10 0.09 0.09 0.10 0.11 0.15 0.17 0.16 0.11 0.11 0.13 0.09 0.08
0.11 0.16 0.13 0.12 0.11 0.09 0.12 0.18 0.16 0.16 0.11 0.08 0.08 0.08 0.07 0.08 0.08 0.08 0.08 0.06 0.06 0.07 0.08 0.09 0.08 0.08 0.09 0.08 0.07 0.06 0.07 0.06 0.04 0.04 0.06 0.08 0.11 0.11 0.09 0.06 0.06 0.05 0.06
0.10 0.16 0.18 0.14 0.10 0.08 0.13 0.16 0.16 0.18 0.16 0.11 0.09 0.08 0.08 0.06 0.05 0.05 0.05 0.05 0.05 0.05 0.06 0.08 0.08 0.08 0.10 0.09 0.07 0.07 0.06 0.07 0.05 0.04 0.03 0.04 0.05 0.06 0.07 0.07 0.07 0.06 0.06
0.12 0.13 0.16 0.12 0.10 0.08 0.12 0.15 0.17 0.18 0.17 0.13 0.09 0.08 0.07 0.05 0.03 0.02 0.02 0.02 0.02 0.03 0.05 0.06 0.07 0.08 0.09 0.09 0.09 0.10 0.09 0.08 0.06 0.05 0.04 0.04 0.03 0.03 0.03 0.05 0.06 0.07 0.06
0.07 0.07 0.10 0.11 0.10 0.10 0.12 0.14 0.18 0.16 0.14 0.13 0.10 0.07 0.05 0.04 0.02 0.01 0.02 0.02 0.02 0.03 0.03 0.04 0.05 0.07 0.07 0.06 0.07 0.08 0.09 0.08 0.08 0.07 0.06 0.06 0.05 0.04 0.04 0.04 0.06 0.07 0.07
0.04 0.04 0.06 0.06 0.05 0.07 0.12 0.13 0.13 0.13 0.12 0.12 0.08 0.07 0.05 0.04 0.03 0.03 0.02 0.02 0.02 0.02 0.02 0.03 0.05 0.05 0.05 0.06 0.06 0.06 0.08 0.09 0.08 0.07 0.06 0.06 0.06 0.05 0.05 0.05 0.06 0.07 0.07
0.04 0.05 0.05 0.06 0.06 0.06 0.08 0.09 0.08 0.08 0.08 0.07 0.07 0.07 0.06 0.06 0.07 0.06 0.03 0.02 0.02 0.02 0.03 0.04 0.05 0.04 0.03 0.04 0.04 0.03 0.05 0.07 0.07 0.06 0.05 0.05 0.04 0.04 0.05 0.05 0.05 0.04 0.05
0.02 0.02 0.03 0.04 0.05 0.06 0.04 0.04 0.05 0.05 0.05 0.06 0.07 0.08 0.08 0.07 0.07 0.05 0.04 0.03 0.03 0.04 0.04 0.04 0.04 0.04 0.02 0.02 0.02 0.02 0.03 0.03 0.05 0.05 0.05 0.05 0.05 0.05 0.06 0.07 0.06 0.05 0.05
0.01 0.01 0.02 0.03 0.03 0.03 0.03 0.04 0.04 0.04 0.05 0.05 0.06 0.08 0.09 0.08 0.08 0.06 0.04 0.04 0.05 0.05 0.04 0.03 0.03 0.03 0.03 0.03 0.03 0.02 0.02 0.03 0.04 0.04 0.06 0.06 0.05 0.06 0.06 0.05 0.04 0.05 0.06
0.01 0.01 0.02 0.02 0.02 0.02 0.02 0.02 0.02 0.03 0.03 0.03 0.05 0.06 0.07 0.08 0.08 0.07 0.04 0.04 0.03 0.03 0.03 0.03 0.03 0.03 0.03 0.03 0.03 0.03 0.02 0.03 0.06 0.05 0.05 0.06 0.06 0.07 0.07 0.06 0.05 0.04 0.05
0.02 0.01 0.02 0.02 0.02 0.02 0.02 0.03 0.03 0.03 0.03 0.03 0.04 0.05 0.07 0.08 0.08 0.06 0.04 0.04 0.02 0.01 0.02 0.03 0.03 0.04 0.02 0.02 0.03 0.03 0.02 0.02 0.04 0.04 0.03 0.05 0.06 0.07 0.06 0.06 0.07 0.07 0.06
0.03 0.02 0.02 0.02 0.02 0.03 0.04 0.03 0.03 0.04 0.04 0.05 0.05 0.06 0.08 0.09 0.07 0.06 0.04 0.04 0.03 0.02 0.02 0.03 0.03 0.03 0.03 0.03 0.03 0.03 0.01 0.01 0.02 0.03 0.03 0.03 0.04 0.05 0.05 0.05 0.07 0.07 0.08
0.05 0.04 0.03 0.04 0.03 0.04 0.04 0.04 0.04 0.04 0.05 0.06 0.06 0.06 0.08 0.08 0.08 0.07 0.05 0.04 0.03 0.02 0.02 0.02 0.01 0.02 0.01 0.02 0.02 0.02 0.01 0.01 0.01 0.02 0.02 0.02 0.03 0.05 0.05 0.05 0.05 0.06 0.06
0.07 0.06 0.06 0.05 0.05 0.05 0.05 0.05 0.05 0.06 0.07 0.07 0.06 0.05 0.05 0.06 0.08 0.06 0.05 0.06 0.04 0.03 0.03 0.02 0.01 0.01 0.01 0.02 0.02 0.01 0.01 0.01 0.01 0.01 0.01 0.01 0.01 0.02 0.03 0.03 0.04 0.05 0.06
0.05 0.06 0.07 0.08 0.09 0.10 0.11 0.12 0.10 0.09 0.08 0.07 0.06 0.04 0.03 0.04 0.04 0.04 0.05 0.07 0.07 0.05 0.03 0.03 0.02 0.02 0.02 0.02 0.01 0.01 0.02 0.01 0.00 0.00 0.00 0.01 0.01 0.02 0.03 0.03 0.04 0.06 0.06
0.07 0.07 0.08 0.08 0.09 0.09 0.07 0.06 0.05 0.05 0.04 0.04 0.04 0.03 0.03 0.04 0.04 0.04 0.04 0.06 0.06 0.06 0.04 0.03 0.03 0.03 0.02 0.01 0.01 0.01 0.01 0.01 0.00 0.00 0.01 0.01 0.01 0.02 0.03 0.03 0.04 0.04 0.04
0.08 0.08 0.08 0.07 0.08 0.09 0.07 0.05 0.04 0.04 0.04 0.03 0.04 0.04 0.04 0.05 0.06 0.05 0.06 0.06 0.06 0.07 0.06 0.05 0.04 0.03 0.02 0.02 0.02 0.02 0.02 0.01 0.01 0.01 0.01 0.01 0.01 0.01 0.02 0.02 0.02 0.02 0.03
0.06 0.07 0.06 0.06 0.08 0.09 0.07 0.05 0.04 0.04 0.03 0.03 0.02 0.03 0.04 0.06 0.06 0.07 0.06 0.06 0.06 0.07 0.07 0.05 0.04 0.03 0.03 0.03 0.03 0.03 0.02 0.02 0.01 0.01 0.01 0.01 0.01 0.01 0.00 0.01 0.01 0.01 0.02
0.04 0.05 0.04 0.04 0.05 0.04 0.04 0.03 0.03 0.02 0.03 0.03 0.02 0.01 0.01 0.02 0.03 0.04 0.04 0.04 0.05 0.05 0.05 0.04 0.04 0.04 0.03 0.03 0.03 0.03 0.03 0.02 0.01 0.01 0.00 0.00 0.00 0.00 0.00 0.00 0.00 0.00 0.00
0.04 0.04 0.05 0.05 0.04 0.03 0.02 0.02 0.02 0.02 0.02 0.02 0.02 0.02 0.02 0.02 0.03 0.04 0.04 0.06 0.07 0.08 0.08 0.06 0.06 0.05 0.04 0.04 0.04 0.04 0.05 0.04 0.03 0.01 0.01 0.01 0.01 0.00 0.00 0.00 0.00 0.00 0.00
0.03 0.04 0.05 0.05 0.04 0.02 0.01 0.02 0.02 0.02 0.02 0.02 0.02 0.01 0.02 0.03 0.04 0.05 0.04 0.05 0.05 0.05 0.05 0.05 0.05 0.04 0.04 0.06 0.06 0.05 0.05 0.05 0.04 0.02 0.02 0.02 0.01 0.01 0.01 0.01 0.00 0.00 0.00
0.03 0.04 0.05 0.04 0.03 0.02 0.01 0.01 0.01 0.02 0.01 0.01 0.01 0.01 0.01 0.02 0.02 0.02 0.02 0.02 0.03 0.03 0.04 0.04 0.05 0.05 0.05 0.08 0.08 0.07 0.06 0.06 0.06 0.04 0.03 0.03 0.02 0.02 0.02 0.01 0.01 0.00 0.00
0.03 0.04 0.05 0.04 0.04 0.02 0.01 0.01 0.02 0.02 0.02 0.02 0.02 0.01 0.01 0.01 0.01 0.01 0.02 0.01 0.01 0.03 0.04 0.04 0.05 0.06 0.06 0.06 0.06 0.06 0.06 0.05 0.04 0.03 0.03 0.03 0.03 0.03 0.02 0.02 0.02 0.01 0.01
0.03 0.04 0.04 0.03 0.03 0.02 0.01 0.01 0.02 0.02 0.02 0.02 0.02 0.02 0.01 0.02 0.01 0.01 0.01 0.01 0.02 0.02 0.02 0.02 0.04 0.05 0.05 0.05 0.05 0.04 0.05 0.04 0.04 0.04 0.03 0.03 0.03 0.03 0.03 0.03 0.03 0.02 0.01
0.02 0.02 0.02 0.02 0.02 0.01 0.01 0.01 0.02 0.02 0.02 0.01 0.01 0.01 0.02 0.02 0.02 0.02 0.02 0.02 0.02 0.03 0.03 0.03 0.05 0.06 0.06 0.06 0.05 0.05 0.05 0.05 0.05 0.05 0.03 0.04 0.04 0.05 0.05 0.04 0.04 0.03 0.02
0.01 0.01 0.01 0.02 0.01 0.02 0.02 0.02 0.01 0.01 0.01 0.01 0.01 0.01 0.02 0.03 0.04 0.03 0.03 0.03 0.03 0.04 0.04 0.05 0.05 0.05 0.04 0.05 0.06 0.05 0.04 0.05 0.05 0.04 0.04 0.03 0.04 0.05 0.05 0.04 0.04 0.03 0.03
MSLP
1008.59 1008.92 1009.25 1009.60 1009.96 1010.36 1010.83 1011.36 1011.97 1012.65 1013.38 1014.11 1014.81 1015.43 1015.95 1016.36 1016.69 1016.95 1017.19 1017.45 1017.76 1018.11 1018.48 1018.87 1019.22 1019.51 1019.72 1019.85 1019.92 1019.97 1020.02 1020.11 1020.25 1020.43 1020.64 1020.84 1021.01 1021.14 1021.22 1021.25 1021.26 1021.27 1021.30
1009.28 1009.58 1009.88 1010.19 1010.53 1010.93 1011.40 1011.95 1012.59 1013.28 1013.99 1014.68 1015.28 1015.79 1016.18 1016.47 1016.69 1016.88 1017.10 1017.38 1017.72 1018.13 1018.58 1019.01 1019.40 1019.70 1019.89 1020.00 1020.05 1020.08 1020.11 1020.19 1020.32 1020.49 1020.69 1020.87 1021.02 1021.11 1021.15 1021.15 1021.12 1021.11 1021.13
1009.92 1010.20 1010.49 1010.80 1011.15 1011.56 1012.05 1012.63 1013.27 1013.96 1014.63 1015.24 1015.76 1016.15 1016.42 1016.61 1016.74 1016.88 1017.07 1017.34 1017.71 1018.14 1018.60 1019.05 1019.43 1019.72 1019.90 1019.99 1020.02 1020.04 1020.07 1020.14 1020.27 1020.44 1020.62 1020.78 1020.90 1020.96 1020.97 1020.95 1020.92 1020.90 1020.92
1010.67 1010.94 1011.22 1011.53 1011.89 1012.31 1012.81 1013.39 1014.01 1014.65 1015.25 1015.78 1016.20 1016.49 1016.67 1016.77 1016.84 1016.93 1017.09 1017.34 1017.69 1018.10 1018.53 1018.94 1019.28 1019.53 1019.68 1019.75 1019.78 1019.79 1019.84 1019.93 1020.06 1020.23 1020.39 1020.53 1020.63 1020.67 1020.67 1020.64 1020.61 1020.60 1020.63
1011.55 1011.80 1012.08 1012.39 1012.75 1013.16 1013.64 1014.17 1014.74 1015.31 1015.83 1016.26 1016.58 1016.79 1016.90 1016.95 1016.97 1017.03 1017.16 1017.36 1017.65 1017.98 1018.34 1018.66 1018.92 1019.11 1019.22 1019.27 1019.30 1019.34 1019.41 1019.53 1019.68 1019.85 1020.01 1020.13 1020.20 1020.23 1020.21 1020.19 1020.17 1020.19 1020.24
1012.49 1012.72 1012.99 1013.29 1013.62 1014.01 1014.44 1014.92 1015.40 1015.87 1016.29 1016.64 1016.88 1017.04 1017.11 1017.13 1017.13 1017.16 1017.25 1017.39 1017.58 1017.81 1018.04 1018.24 1018.40 1018.50 1018.56 1018.60 1018.64 1018.72 1018.83 1018.98 1019.16 1019.33 1019.48 1019.58 1019.63 1019.64 1019.62 1019.59 1019.59 1019.63 1019.71
1013.35 1013.57 1013.82 1014.10 1014.41 1014.76 1015.13 1015.53 1015.92 1016.30 1016.63 1016.89 1017.08 1017.21 1017.27 1017.29 1017.30 1017.32 1017.35 1017.42 1017.50 1017.59 1017.67 1017.73 1017.76 1017.78 1017.79 1017.82 1017.89 1018.00 1018.17 1018.36 1018.56 1018.74 1018.87 1018.94 1018.96 1018.93 1018.89 1018.86 1018.87 1018.92 1019.01
1014.03 1014.23 1014.46 1014.73 1015.02 1015.32 1015.64 1015.96 1016.28 1016.56 1016.82 1017.03 1017.19 1017.31 1017.39 1017.44 1017.46 1017.46 1017.46 1017.44 1017.41 1017.35 1017.28 1017.19 1017.10 1017.04 1017.01 1017.04 1017.14 1017.30 1017.51 1017.74 1017.96 1018.13 1018.23 1018.26 1018.23 1018.16 1018.08 1018.03 1018.02 1018.06 1018.15
1014.46 1014.64 1014.86 1015.12 1015.39 1015.67 1015.95 1016.21 1016.46 1016.68 1016.88 1017.06 1017.22 1017.35 1017.46 1017.53 1017.58 1017.59 1017.54 1017.45 1017.31 1017.12 1016.91 1016.69 1016.50 1016.37 1016.31 1016.35 1016.48 1016.69 1016.94 1017.20 1017.42 1017.57 1017.64 1017.61 1017.52 1017.39 1017.25 1017.15 1017.11 1017.12 1017.18
1014.66 1014.82 1015.04 1015.29 1015.56 1015.82 1016.08 1016.31 1016.51 1016.69 1016.86 1017.02 1017.17 1017.32 1017.46 1017.57 1017.64 1017.65 1017.58 1017.42 1017.20 1016.91 1016.58 1016.27 1016.00 1015.82 1015.75 1015.81 1015.97 1016.22 1016.50 1016.78 1016.99 1017.12 1017.13 1017.05 1016.88 1016.68 1016.48 1016.32 1016.22 1016.18 1016.19
1014.70 1014.85 1015.06 1015.32 1015.59 1015.85 1016.09 1016.30 1016.48 1016.63 1016.77 1016.92 1017.07 1017.23 1017.39 1017.52 1017.60 1017.61 1017.52 1017.33 1017.05 1016.69 1016.30 1015.92 1015.61 1015.41 1015.34 1015.42 1015.61 1015.88 1016.19 1016.47 1016.67 1016.76 1016.74 1016.60 1016.38 1016.12 1015.85 1015.63 1015.46 1015.36 1015.31
1014.68 1014.82 1015.03 1015.28 1015.56 1015.82 1016.06 1016.25 1016.40 1016.53 1016.64 1016.76 1016.90 1017.06 1017.22 1017.36 1017.45 1017.46 1017.37 1017.16 1016.84 1016.46 1016.04 1015.64 1015.32 1015.12 1015.06 1015.15 1015.36 1015.65 1015.96 1016.24 1016.43 1016.50 1016.44 1016.27 1016.02 1015.72 1015.41 1015.14 1014.92 1014.76 1014.64
1014.67 1014.79 1014.99 1015.25 1015.52 1015.78 1016.01 1016.18 1016.31 1016.40 1016.48 1016.56 1016.67 1016.80 1016.95 1017.08 1017.17 1017.18 1017.09 1016.89 1016.58 1016.20 1015.79 1015.40 1015.09 1014.90 1014.86 1014.96 1015.17 1015.46 1015.77 1016.04 1016.22 1016.29 1016.23 1016.05 1015.80 1015.50 1015.18 1014.89 1014.64 1014.43 1014.25
1014.69 1014.80 1015.00 1015.24 1015.50 1015.75 1015.96 1016.11 1016.20 1016.25 1016.28 1016.32 1016.38 1016.47 1016.58 1016.70 1016.78 1016.80 1016.73 1016.55 1016.27 1015.92 1015.54 1015.19 1014.91 1014.74 1014.70 1014.80 1015.01 1015.28 1015.57 1015.83 1016.00 1016.08 1016.04 1015.90 1015.68 1015.42 1015.14 1014.87 1014.61 1014.38 1014.17
1014.74 1014.84 1015.01 1015.24 1015.48 1015.71 1015.89 1016.01 1016.06 1016.06 1016.04 1016.02 1016.03 1016.08 1016.16 1016.25 1016.33 1016.35 1016.31 1016.17 1015.94 1015.65 1015.33 1015.02 1014.77 1014.62 1014.58 1014.66 1014.84 1015.08 1015.34 1015.57 1015.74 1015.83 1015.83 1015.75 1015.60 1015.42 1015.21 1015.00 1014.78 1014.56 1014.33
1014.75 1014.84 1015.00 1015.21 1015.43 1015.63 1015.78 1015.86 1015.88 1015.84 1015.77 1015.70 1015.66 1015.66 1015.71 1015.78 1015.85 1015.90 1015.89 1015.80 1015.64 1015.41 1015.15 1014.90 1014.68 1014.54 1014.50 1014.55 1014.68 1014.87 1015.08 1015.27 1015.43 1015.53 1015.57 1015.56 1015.50 1015.42 1015.31 1015.18 1015.03 1014.85 1014.64
1014.67 1014.76 1014.91 1015.10 1015.30 1015.48 1015.60 1015.66 1015.64 1015.56 1015.46 1015.36 1015.28 1015.25 1015.27 1015.33 1015.41 1015.48 1015.52 1015.49 1015.40 1015.24 1015.05 1014.85 1014.67 1014.53 1014.47 1014.48 1014.55 1014.66 1014.80 1014.95 1015.08 1015.17 1015.24 1015.29 1015.31 1015.32 1015.32 1015.29 1015.23 1015.12 1014.96
1014.46 1014.55 1014.69 1014.88 1015.06 1015.23 1015.34 1015.37 1015.34 1015.25 1015.12 1015.00 1014.90 1014.86 1014.87 1014.93 1015.03 1015.13 1015.21 1015.25 1015.22 1015.14 1015.02 1014.87 1014.71 1014.59 1014.50 1014.46 1014.46 1014.50 1014.56 1014.63 1014.71 1014.78 1014.85 1014.92 1015.00 1015.08 1015.16 1015.23 1015.26 1015.25 1015.17
1014.11 1014.21 1014.36 1014.54 1014.73 1014.88 1014.99 1015.02 1014.98 1014.89 1014.76 1014.63 1014.53 1014.49 1014.51 1014.58 1014.70 1014.84 1014.96 1015.05 1015.09 1015.08 1015.01 1014.91 1014.80 1014.68 1014.57 1014.49 1014.43 1014.39 1014.37 1014.36 1014.36 1014.37 1014.41 1014.47 1014.56 1014.68 1014.82 1014.96 1015.08 1015.16 1015.18
1013.66 1013.78 1013.94 1014.12 1014.31 1014.46 1014.56 1014.60 1014.56 1014.47 1014.36 1014.24 1014.15 1014.12 1014.15 1014.25 1014.39 1014.56 1014.72 1014.86 1014.96 1015.00 1015.00 1014.95 1014.87 1014.77 1014.66 1014.55 1014.45 1014.34 1014.24 1014.15 1014.06 1014.00 1013.97 1013.98 1014.05 1014.16 1014.32 1014.51 1014.70 1014.86 1014.98
1013.16 1013.29 1013.46 1013.65 1013.83 1013.98 1014.08 1014.11 1014.08 1014.00 1013.89 1013.80 1013.73 1013.72 1013.78 1013.89 1014.06 1014.25 1014.45 1014.63 1014.76 1014.86 1014.90 1014.90 1014.86 1014.79 1014.70 1014.59 1014.47 1014.32 1014.16 1014.00 1013.84 1013.69 1013.57 1013.51 1013.52 1013.59 1013.73 1013.93 1014.16 1014.40 1014.62
1012.64 1012.79 1012.97 1013.15 1013.32 1013.45 1013.53 1013.55 1013.52 1013.44 1013.36 1013.28 1013.24 1013.27 1013.35 1013.49 1013.68 1013.89 1014.11 1014.31 1014.48 1014.61 1014.69 1014.73 1014.74 1014.71 1014.65 1014.57 1014.45 1014.30 1014.11 1013.90 1013.68 1013.46 1013.27 1013.12 1013.05 1013.07 1013.17 1013.35 1013.60 1013.89 1014.20
1012.13 1012.30 1012.47 1012.63 1012.77 1012.87 1012.92 1012.91 1012.87 1012.80 1012.73 1012.69 1012.69 1012.75 1012.87 1013.04 1013.25 1013.48 1013.71 1013.93 1014.11 1014.25 1014.36 1014.43 1014.48 1014.49 1014.48 1014.43 1014.35 1014.23 1014.05 1013.84 1013.59 1013.33 1013.08 1012.87 1012.73 1012.68 1012.72 1012.88 1013.12 1013.44 1013.80
1011.62 1011.78 1011.94 1012.06 1012.16 1012.21 1012.22 1012.19 1012.14 1012.08 1012.04 1012.03 1012.08 1012.19 1012.36 1012.57 1012.81 1013.06 1013.29 1013.51 1013.68 1013.83 1013.94 1014.03 1014.09 1014.15 1014.18 1014.19 1014.16 1014.09 1013.96 1013.78 1013.55 1013.29 1013.02 1012.78 1012.59 1012.49 1012.49 1012.60 1012.83 1013.14 1013.54
1011.04 1011.20 1011.32 1011.41 1011.46 1011.46 1011.43 1011.38 1011.32 1011.29 1011.29 1011.34 1011.46 1011.64 1011.87 1012.14 1012.41 1012.68 1012.92 1013.13 1013.29 1013.41 1013.50 1013.58 1013.65 1013.72 1013.79 1013.85 1013.88 1013.88 1013.82 1013.71 1013.54 1013.32 1013.08 1012.85 1012.65 1012.52 1012.49 1012.56 1012.76 1013.05 1013.44
1010.34 1010.48 1010.57 1010.62 1010.63 1010.60 1010.54 1010.49 1010.46 1010.46 1010.53 1010.67 1010.88 1011.16 1011.47 1011.80 1012.13 1012.42 1012.67 1012.86 1012.99 1013.08 1013.13 1013.18 1013.23 1013.29 1013.37 1013.46 1013.55 1013.62 1013.64 1013.62 1013.53 1013.40 1013.22 1013.04 1012.87 1012.75 1012.70 1012.75 1012.91 1013.16 1013.52
Thickness
5775 5774 5772 5771 5772 5770 5769 5767 5766 5764 5762 5761 5760 5759 5758 5756 5755 5754 5752 5748 5747 5746 5745 5744 5743 5741 5740 5739 5738 5736 5735 5733 5732 5731 5730 5728 5727 5725 5724 5722 5721 5720 5719
5774 5773 5772 5771 5771 5770 5768 5767 5765 5763 5761 5760 5758 5756 5755 5754 5753 5752 5751 5749 5746 5745 5744 5742 5741 5741 5739 5738 5736 5735 5733 5733 5731 5730 5729 5727 5726 5724 5723 5721 5720 5719 5718
5773 5773 5772 5771 5770 5768 5767 5766 5764 5762 5760 5759 5756 5755 5754 5752 5751 5751 5750 5749 5748 5745 5743 5741 5740 5740 5738 5737 5735 5734 5732 5731 5730 5728 5727 5725 5724 5723 5722 5720 5719 5718 5717
5773 5773 5772 5771 5769 5768 5767 5765 5764 5762 5759 5757 5755 5754 5753 5751 5750 5750 5750 5749 5748 5746 5743 5741 5740 5738 5737 5736 5734 5733 5731 5729 5728 5727 5725 5724 5723 5721 5720 5719 5717 5716 5715
5773 5773 5772 5770 5769 5768 5767 5766 5763 5761 5758 5755 5755 5753 5753 5752 5750 5750 5749 5749 5747 5746 5745 5742 5739 5738 5736 5734 5733 5732 5730 5728 5726 5725 5724 5723 5721 5720 5719 5717 5716 5714 5713
5772 5773 5772 5770 5770 5768 5765 5763 5760 5759 5757 5755 5755 5753 5752 5752 5751 5750 5749 5749 5747 5746 5745 5743 5741 5738 5735 5734 5732 5730 5729 5727 5725 5724 5722 5721 5720 5718 5717 5716 5714 5713 5711
5773 5773 5773 5770 5769 5767 5764 5763 5761 5758 5756 5756 5753 5750 5751 5751 5750 5749 5749 5749 5748 5746 5744 5742 5741 5739 5737 5734 5731 5730 5728 5726 5724 5723 5721 5720 5718 5717 5715 5713 5712 5710 5709
5775 5775 5771 5771 5768 5766 5763 5761 5759 5758 5757 5757 5753 5749 5745 5746 5747 5750 5749 5747 5747 5746 5744 5742 5740 5737 5737 5736 5733 5729 5727 5725 5723 5721 5720 5718 5716 5715 5713 5711 5710 5708 5707
5776 5774 5772 5771 5768 5768 5765 5762 5760 5758 5756 5757 5756 5752 5747 5744 5745 5747 5747 5747 5745 5745 5744 5743 5740 5738 5736 5735 5733 5729 5726 5724 5722 5720 5718 5716 5714 5713 5711 5709 5707 5705 5704
5776 5774 5772 5770 5769 5769 5765 5764 5762 5760 5757 5755 5755 5754 5753 5751 5745 5742 5744 5745 5744 5742 5742 5743 5742 5739 5737 5734 5731 5728 5725 5723 5720 5718 5716 5714 5712 5710 5708 5706 5704 5703 5702
5777 5775 5773 5771 5769 5768 5766 5764 5762 5760 5759 5756 5755 5754 5751 5750 5748 5743 5739 5740 5742 5743 5743 5742 5741 5739 5736 5733 5730 5727 5724 5721 5718 5716 5714 5711 5709 5707 5705 5703 5702 5700 5699
5778 5776 5774 5771 5769 5768 5765 5763 5761 5759 5758 5756 5755 5755 5752 5749 5747 5745 5740 5738 5738 5741 5741 5739 5738 5736 5734 5732 5729 5725 5721 5718 5716 5713 5711 5708 5706 5704 5702 5700 5699 5697 5695
5779 5775 5774 5771 5770 5767 5766 5763 5760 5758 5757 5754 5753 5754 5754 5752 5750 5747 5741 5738 5737 5738 5737 5737 5736 5734 5731 5729 5726 5722 5719 5715 5713 5710 5707 5704 5702 5700 5698 5696 5694 5692 5691
5780 5776 5773 5771 5769 5767 5766 5763 5761 5759 5756 5754 5754 5752 5752 5752 5750 5747 5743 5738 5734 5735 5736 5735 5734 5732 5729 5727 5723 5719 5716 5712 5709 5706 5703 5700 5698 5695 5693 5691 5689 5688 5686
5779 5776 5773 5771 5769 5766 5764 5761 5760 5757 5755 5754 5753 5752 5751 5751 5749 5748 5746 5742 5735 5731 5732 5733 5731 5730 5727 5723 5719 5717 5714 5709 5706 5703 5700 5697 5694 5691 5688 5686 5684 5682 5680
5776 5774 5772 5769 5767 5765 5763 5760 5758 5756 5753 5752 5751 5750 5749 5750 5749 5747 5745 5743 5740 5735 5731 5734 5730 5729 5724 5722 5717 5714 5711 5706 5702 5699 5696 5693 5690 5687 5684 5681 5678 5676 5674
5774 5772 5770 5768 5765 5763 5761 5758 5757 5755 5752 5751 5750 5749 5747 5747 5747 5746 5745 5742 5739 5735 5729 5731 5729 5726 5720 5717 5714 5711 5708 5704 5701 5696 5693 5689 5686 5682 5679 5676 5673 5671 5669
5772 5770 5768 5765 5763 5762 5760 5757 5755 5754 5752 5750 5749 5748 5747 5747 5744 5743 5742 5740 5737 5735 5730 5726 5725 5722 5718 5714 5711 5707 5705 5703 5699 5693 5689 5685 5682 5678 5675 5672 5669 5666 5663
5770 5768 5766 5763 5761 5759 5758 5756 5754 5752 5751 5750 5748 5746 5745 5744 5742 5741 5739 5738 5737 5735 5731 5726 5723 5720 5716 5712 5707 5704 5701 5697 5696 5691 5685 5681 5678 5674 5670 5667 5664 5661 5658
5768 5765 5763 5761 5759 5758 5756 5755 5753 5751 5749 5747 5747 5745 5744 5742 5740 5738 5737 5735 5733 5730 5727 5724 5721 5717 5713 5709 5704 5700 5697 5694 5692 5689 5684 5679 5674 5670 5667 5663 5660 5656 5653
5766 5763 5761 5758 5757 5755 5754 5751 5749 5749 5746 5745 5744 5743 5742 5740 5737 5734 5734 5732 5729 5726 5724 5721 5717 5714 5710 5705 5701 5699 5695 5691 5688 5685 5681 5677 5673 5669 5664 5660 5655 5651 5648
5762 5759 5757 5756 5754 5753 5749 5744 5743 5744 5743 5742 5740 5739 5739 5736 5733 5729 5727 5725 5723 5721 5720 5717 5714 5710 5707 5704 5700 5697 5692 5688 5683 5682 5677 5675 5672 5668 5664 5660 5654 5648 5643
5757 5755 5753 5752 5750 5747 5742 5739 5737 5739 5739 5738 5737 5735 5735 5735 5729 5727 5723 5719 5718 5715 5713 5712 5710 5708 5705 5703 5697 5692 5688 5685 5681 5680 5673 5670 5668 5665 5662 5657 5650 5645 5640
5753 5751 5749 5747 5745 5743 5738 5734 5732 5733 5735 5733 5732 5731 5729 5728 5726 5721 5719 5717 5716 5714 5711 5708 5707 5705 5703 5699 5693 5689 5685 5680 5676 5674 5670 5666 5665 5661 5658 5653 5645 5641 5635
5749 5747 5745 5743 5740 5737 5732 5729 5726 5729 5729 5728 5728 5727 5725 5722 5718 5714 5712 5711 5710 5709 5706 5703 5699 5697 5693 5690 5686 5683 5679 5675 5671 5669 5666 5662 5661 5657 5653 5649 5642 5635 5631
5744 5743 5740 5738 5736 5733 5728 5724 5720 5725 5724 5724 5723 5722 5718 5716 5711 5707 5706 5705 5703 5702 5700 5697 5693 5689 5687 5684 5680 5677 5676 5672 5668 5665 5663 5658 5655 5651 5646 5644 5639 5632 5626